#timestamp,LO_Frequency,Hit,StdDev 
1506193215.9,286047001.0,N
1506193235.7,286047000.6,N
1506193255.6,286047001.2,N
1506193275.4,286047000.9,N
1506193295.2,286047000.7,N
1506193315.1,286047000.1,N
1506193316.0,286047000.1,N
1506193335.8,286047000.3,N
1506193355.7,286047000.4,N
1506193375.5,286046999.8,N
1506193395.3,286047002.2,N
1506193415.2,286047000.2,N
1506193435.0,286047000.0,N
1506193435.9,286047000.0,N
1506193455.8,286047000.2,N
1506193475.6,286047000.4,N
1506193495.4,286046999.6,N
1506193515.3,286046999.3,N
1506193535.1,286047001.2,N
1506193555.9,286046998.1,N
1506193575.7,286046998.5,N
1506193595.5,286047000.8,N
1506193615.4,286046998.5,N
1506193635.2,286046998.7,N
1506193655.0,286046998.5,N
1506193655.9,286046998.5,N
1506193675.8,286046998.3,N
1506193695.6,286046999.4,N
1506193715.5,286046999.6,N
1506193735.3,286046999.6,N
1506193755.1,286046999.4,N
1506193775.9,286046999.2,N
1506193795.7,286046999.6,N
1506193815.6,286046999.4,N
1506193835.4,286046996.5,Y
1506193855.2,286046999.6,P
1506193875.1,286046996.8,P
1506193876.0,286046996.8,N
1506193895.8,286046999.5,N
1506193915.7,286046996.7,N
1506193935.5,286046999.6,N
1506193955.3,286046999.6,N
1506193975.2,286046999.5,N
1506193995.0,286046999.3,N
1506193995.9,286046999.3,N
1506194015.8,286046998.9,N
1506194035.6,286046999.2,N
1506194055.4,286046999.1,N
1506194075.3,286046998.6,N
1506194095.1,286046999.1,N
1506194115.8,286046999.1,N
1506194135.7,286046998.4,N
1506194155.5,286046998.9,N
1506194175.4,286046999.0,N
1506194195.2,286046998.1,N
1506194215.0,286046999.9,N
1506194215.9,286046999.9,N
1506194235.8,286047000.7,N
1506194255.6,286047000.4,N
1506194275.5,286047002.7,N
1506194295.3,286047000.1,N
1506194315.1,286047000.4,N
1506194335.9,286046998.7,N
1506194355.7,286046999.1,N
1506194375.6,286047000.8,N
1506194395.4,286047002.5,N
1506194415.2,286046999.7,N
1506194435.1,286046999.7,N
1506194436.0,286046999.7,N
1506194455.8,286047000.9,N
1506194475.7,286047000.5,N
1506194495.5,286047000.9,N
1506194515.3,286047000.4,N
1506194535.2,286046999.9,N
1506194555.0,286047002.7,N
1506194555.9,286047002.7,N
1506194575.8,286047000.4,N
1506194595.6,286047000.6,N
1506194615.4,286047000.3,N
1506194635.3,286047002.7,N
1506194655.1,286047002.6,N
1506194675.9,286047002.0,N
1506194695.7,286047002.3,N
1506194715.5,286047002.0,N
1506194735.4,286047001.6,N
1506194755.2,286047004.0,Y
1506194775.1,286047002.0,P
1506194776.0,286047002.0,P
1506194795.8,286047002.3,P
1506194815.6,286047001.6,N
1506194835.5,286047001.9,Y
1506194855.3,286047001.2,P
1506194875.2,286046998.5,P
1506194895.9,286047001.2,N
1506194915.7,286046998.6,N
1506194935.6,286046998.1,N
1506194955.4,286047000.7,N
1506194975.3,286047000.7,N
1506194995.1,286046998.6,N
1506194996.0,286046998.6,N
1506195015.8,286046999.9,N
1506195035.7,286047000.5,N
1506195055.5,286046998.1,N
1506195075.4,286046998.8,N
1506195095.2,286046998.3,N
1506195115.0,286046999.1,N
1506195115.9,286046999.1,N
1506195135.8,286046999.5,N
1506195155.6,286046996.7,N
1506195175.5,286046996.5,N
1506195195.3,286046998.2,N
1506195215.1,286047001.1,N
1506195235.9,286047000.7,N
1506195255.7,286046999.8,N
1506195275.6,286046998.2,N
1506195295.4,286047000.7,N
1506195315.2,286046999.8,N
1506195335.1,286047000.1,N
1506195336.0,286047000.1,N
1506195355.8,286047000.4,N
1506195375.7,286047002.8,N
1506195395.5,286047004.0,N
1506195415.3,286047001.5,N
1506195435.2,286047004.4,N
1506195455.0,286047001.3,N
1506195455.9,286047001.3,N
1506195475.8,286047004.1,N
1506195495.6,286047003.7,N
1506195515.4,286047003.9,N
1506195535.3,286047001.7,N
1506195555.1,286047001.8,N
1506195575.9,286047002.4,N
1506195595.7,286047002.8,N
1506195615.5,286047002.1,N
1506195635.4,286047002.6,N
1506195655.2,286047003.8,N
1506195675.0,286047004.1,N
1506195675.9,286047004.1,N
1506195695.8,286047003.9,N
1506195715.6,286047001.8,N
1506195735.5,286047002.4,N
1506195755.3,286047001.9,N
1506195775.1,286047004.2,N
1506195795.9,286047001.7,N
1506195815.7,286047001.9,N
1506195835.6,286047001.8,N
1506195855.4,286046999.7,N
1506195875.2,286047002.4,N
1506195895.1,286047002.6,N
1506195896.0,286047002.6,N
1506195915.8,286047001.6,N
1506195935.7,286047004.4,Y
1506195955.5,286047001.2,P
1506195975.3,286046998.1,N
1506195995.2,286047000.0,N
1506196015.0,286047000.1,N
1506196015.9,286047000.1,N
1506196035.8,286047001.0,N
1506196055.6,286047000.8,N
1506196075.4,286047000.1,N
1506196095.3,286046999.7,N
1506196115.1,286047000.1,N
1506196135.9,286046999.7,N
1506196155.7,286046999.9,N
1506196175.5,286047000.0,N
1506196195.4,286047000.3,N
1506196215.2,286047000.6,N
1506196235.0,286047001.2,N
1506196235.9,286047001.2,N
1506196255.8,286046998.3,N
1506196275.6,286047001.0,N
1506196295.5,286046998.1,N
1506196315.3,286047000.3,N
1506196335.1,286047000.4,N
1506196355.9,286046998.4,N
1506196375.7,286046998.3,N
1506196395.6,286046998.4,N
1506196415.4,286047001.2,N
1506196435.2,286046998.1,N
1506196455.1,286046998.3,N
1506196456.0,286046998.3,N
1506196475.8,286046998.1,N
1506196495.7,286047000.6,N
1506196515.5,286047000.2,N
1506196535.3,286046999.7,N
1506196555.2,286047000.9,N
1506196575.0,286047000.8,N
1506196575.9,286047000.8,N
1506196595.8,286047000.3,N
1506196615.6,286046998.2,N
1506196635.4,286046998.3,N
1506196655.3,286046998.6,N
1506196675.1,286046998.8,N
1506196695.9,286046999.2,N
1506196715.7,286046999.1,N
1506196735.5,286046999.4,N
1506196755.4,286046998.4,N
1506196775.2,286047000.6,N
1506196795.1,286047000.7,N
1506196796.0,286047000.7,N
